EHI
13 14 15 12 10 11 11 10 10 9 9 11 12 14 15 11 7 11 26 48 61 65 62 50 33 18 8 6 5 5 5 5 5 4 3 2 1 0 0 0 0 0 0
8 8 9 11 11 10 11 10 7 6 7 8 9 12 13 9 7 9 20 39 53 57 57 52 39 25 15 10 6 5 5 6 6 5 3 3 2 1 0 0 0 0 0
2 2 3 7 8 7 8 7 5 4 4 6 6 7 8 8 6 7 13 27 39 43 46 48 43 35 27 18 10 6 5 6 7 6 4 3 3 2 1 0 0 0 0
0 0 1 2 3 3 4 4 3 4 4 5 6 5 5 6 5 5 9 17 24 27 30 34 35 34 30 23 15 12 11 10 9 7 4 3 3 4 3 1 0 0 0
0 0 0 0 0 1 2 2 3 3 3 3 3 3 2 3 3 3 6 8 11 14 16 17 21 24 22 19 17 18 19 17 13 9 6 4 4 4 4 2 1 0 0
0 0 0 0 0 0 1 1 1 2 1 1 1 1 0 1 2 2 3 3 3 5 7 9 15 17 12 9 12 19 24 22 19 16 11 6 4 4 4 3 1 0 0
1 1 0 0 0 0 0 0 0 0 0 0 0 0 0 0 2 2 2 2 1 1 3 7 14 15 9 4 5 12 20 24 25 24 20 13 8 5 4 2 1 0 0
0 0 0 0 0 0 0 0 0 0 0 0 0 0 0 0 1 1 1 2 2 2 1 4 10 10 6 4 3 5 11 18 22 25 25 22 15 9 4 1 0 0 0
1 1 1 0 0 0 0 0 0 0 0 0 0 0 0 0 0 0 0 1 2 1 0 1 3 3 3 4 3 2 4 9 12 16 22 25 21 12 5 1 0 0 0
2 2 1 0 0 0 0 0 0 0 0 0 0 0 0 0 0 0 0 0 0 0 0 0 0 0 1 2 2 1 2 3 4 7 15 24 24 17 8 2 0 0 0
1 1 1 0 0 0 0 0 0 0 0 0 0 0 0 0 0 0 0 0 0 0 0 0 0 0 0 1 1 0 0 1 1 3 9 17 22 20 13 6 2 0 0
0 0 0 0 0 0 0 0 0 0 0 0 0 0 0 0 0 0 0 0 0 0 0 0 0 0 0 0 0 0 0 0 0 1 4 9 14 17 14 9 3 1 1
0 0 0 0 0 0 0 0 0 0 0 0 0 0 0 0 0 0 0 0 0 0 0 0 0 0 0 0 0 0 0 0 0 0 1 3 6 8 8 5 2 1 2
0 0 0 0 0 0 0 0 0 0 0 0 0 0 0 0 0 0 0 0 0 0 0 0 0 0 1 0 0 0 0 0 0 0 0 1 2 3 2 2 1 1 2
0 0 0 0 0 0 0 0 0 0 0 0 0 0 0 0 0 0 0 0 0 0 0 0 0 0 0 0 0 0 0 0 0 0 0 0 1 1 0 0 0 0 1
0 0 0 0 0 0 0 0 0 0 0 0 0 0 0 0 0 0 0 0 0 0 0 0 0 0 0 0 0 0 0 0 0 0 0 0 0 0 0 0 0 0 0
0 0 0 0 0 0 0 0 0 0 0 0 0 0 0 0 0 0 0 0 0 0 0 0 0 0 0 0 0 0 0 0 0 0 0 0 0 0 0 0 0 0 0
0 0 0 0 0 0 0 0 0 0 0 0 0 0 0 0 0 0 0 0 0 0 0 0 0 0 0 0 0 0 0 0 0 0 0 0 0 0 0 0 0 0 0
0 0 0 0 0 0 0 0 0 0 0 0 0 0 0 0 0 0 0 0 0 0 0 0 0 0 0 0 0 0 0 0 0 0 0 0 0 0 0 0 0 0 0
0 0 0 0 0 0 0 0 0 0 0 0 0 0 0 0 0 0 0 0 0 0 0 0 0 0 0 0 0 0 0 0 0 0 0 0 0 0 0 0 0 0 0
0 0 0 0 0 0 0 0 0 0 0 0 0 0 0 0 0 0 0 0 0 0 0 0 0 0 0 0 0 0 0 0 0 0 0 0 0 0 0 0 0 0 0
0 0 0 0 0 0 0 0 0 0 0 0 0 0 0 0 0 0 0 0 0 0 0 0 0 0 0 0 0 0 0 0 0 0 0 0 0 0 0 0 0 0 0
0 0 0 0 0 0 0 0 0 0 0 0 0 0 0 0 0 0 0 0 0 0 0 0 0 0 0 0 0 0 0 0 0 0 0 0 0 0 0 0 0 0 0
1 1 0 0 0 0 0 0 0 0 0 0 0 0 0 0 0 0 0 0 0 0 0 0 0 0 0 0 0 0 0 0 0 0 0 0 0 0 0 0 0 0 0
2 1 0 0 0 0 0 0 0 0 0 0 0 0 0 0 0 0 0 0 0 0 0 0 0 0 0 0 0 0 0 0 0 0 0 0 0 0 0 0 0 0 0
3 1 0 0 0 0 0 0 0 0 0 0 0 0 0 0 0 0 0 0 0 0 0 0 0 0 0 0 0 0 0 0 0 0 0 0 0 0 0 0 0 0 0
Wind_Speed
3 3 2 1 2 1 1 1 2 2 3 4 4 5 5 6 5 4 3 14 16 16 16 17 16 16 16 15 15 14 14 14 13 12 12 11 11 12 11 11 10 9 9
4 4 3 2 2 1 1 1 2 3 3 3 4 5 5 6 6 5 4 8 15 16 16 17 17 17 18 17 17 16 15 15 14 14 13 13 12 12 12 12 11 10 10
4 5 4 2 2 2 1 2 2 3 3 3 3 4 4 5 5 6 6 4 7 14 17 17 17 17 18 18 19 18 17 16 15 15 15 14 14 13 13 13 12 12 11
4 4 4 3 3 3 3 2 1 2 3 3 3 3 3 3 5 6 6 5 5 6 12 18 17 17 18 19 20 19 18 17 17 16 16 16 15 15 14 14 13 13 12
4 4 4 3 4 3 3 4 4 4 4 4 4 5 4 4 4 6 6 7 6 6 6 11 18 18 19 21 20 20 20 19 19 18 18 18 17 16 16 15 15 14 13
4 4 4 5 5 4 3 3 4 3 3 4 6 6 4 5 4 5 6 6 6 8 8 8 9 13 20 19 19 19 20 20 20 20 20 20 19 18 17 17 16 16 15
3 4 3 4 4 4 4 5 4 5 4 4 4 4 5 6 5 5 4 4 4 5 5 6 6 6 7 17 19 19 20 22 22 22 22 21 21 19 19 18 18 17 17
2 4 4 4 5 4 4 3 3 3 5 5 4 4 4 4 3 2 2 3 3 2 3 5 4 5 5 5 11 19 21 22 23 23 23 22 22 21 20 20 19 19 18
2 2 2 3 4 5 4 4 4 4 4 5 4 3 3 3 5 3 2 0 1 1 2 2 4 5 6 5 6 14 20 21 23 24 24 23 22 21 21 21 21 20 20
2 1 1 2 3 4 5 5 5 5 5 4 5 3 3 3 2 4 4 2 1 2 3 3 3 3 5 5 6 9 14 18 21 23 23 23 23 22 22 22 23 22 21
3 3 2 1 2 3 3 4 4 4 4 4 4 5 5 4 3 4 5 4 3 2 2 3 2 3 4 4 4 7 9 12 15 19 21 22 23 23 24 24 24 24 23
2 2 2 1 2 3 3 4 4 5 4 4 4 4 4 4 4 4 5 5 4 3 3 2 2 2 3 3 5 7 9 11 12 14 17 19 21 22 24 25 25 25 25
2 1 2 1 2 3 4 4 4 5 5 5 4 4 4 4 4 4 4 5 6 4 4 3 3 2 2 2 1 4 8 10 12 14 15 16 19 20 22 23 24 24 24
3 2 1 2 3 4 5 4 4 5 5 4 6 5 3 4 4 4 4 4 5 5 5 5 2 2 1 2 2 4 5 9 11 12 13 15 16 18 19 20 21 21 22
3 3 3 3 4 4 5 5 4 5 5 5 5 5 4 4 4 4 4 4 4 6 6 5 3 2 1 2 3 3 3 5 9 12 13 14 15 17 18 19 20 20 19
4 4 4 5 5 5 5 5 5 6 5 5 5 6 5 4 4 4 4 4 4 5 6 5 4 4 3 3 4 3 4 6 9 12 13 13 14 15 16 17 18 19 20
4 4 5 5 5 6 6 5 6 6 6 6 6 7 6 6 5 4 4 4 4 4 6 5 4 4 3 4 3 4 4 4 5 11 13 13 14 15 15 16 17 18 19
4 5 5 5 6 6 6 6 6 7 6 6 6 7 7 7 6 5 5 6 5 5 6 7 6 6 7 6 5 5 5 6 5 9 13 13 13 14 15 15 16 17 19
4 5 5 6 6 6 6 6 6 7 7 7 7 7 7 7 6 5 5 6 5 7 5 6 6 5 5 5 5 5 6 5 6 7 10 12 13 14 15 15 15 16 17
5 5 6 6 6 6 7 7 7 7 6 6 7 7 7 7 7 7 7 6 6 6 6 6 6 6 5 6 5 5 5 4 5 5 6 7 10 13 13 14 15 16 17
7 5 5 6 6 7 8 6 5 7 5 6 6 7 8 10 10 8 8 6 5 5 5 5 6 6 5 4 4 4 4 4 4 4 4 4 5 5 7 10 12 14 15
5 5 6 7 8 8 4 3 4 6 6 7 8 7 9 10 12 14 15 13 11 8 7 6 6 6 6 6 5 5 4 4 4 2 3 4 4 5 5 5 8 11 13
5 5 6 7 7 8 9 9 9 7 7 7 8 8 10 11 9 7 9 13 14 17 15 10 9 9 8 7 6 6 6 6 5 3 2 4 4 4 3 3 7 9 11
5 5 6 7 7 9 10 10 11 9 9 9 9 10 10 10 11 8 7 7 7 9 11 12 11 11 11 8 7 6 7 7 6 5 4 4 3 3 2 2 4 7 9
5 6 7 7 8 8 9 11 10 7 8 10 10 10 10 9 11 10 8 8 8 8 11 14 15 15 16 14 9 5 6 6 7 5 4 4 3 2 2 2 2 5 7
6 7 8 7 8 8 9 11 11 7 8 8 8 8 12 11 10 10 8 8 8 8 8 9 8 10 12 13 14 10 8 8 7 6 4 4 3 3 2 2 2 2 3
Wind_Direction
8 359 335 314 292 285 284 322 298 284 274 266 254 245 240 250 254 254 199 182 183 186 189 192 195 199 201 200 198 197 196 195 191 187 187 186 183 180 179 177 174 170 167
16 350 321 313 308 342 34 328 300 289 273 262 260 258 246 246 246 246 235 198 195 195 197 199 201 204 205 205 204 203 201 200 195 192 191 189 187 186 185 184 182 179 176
7 342 313 315 3 343 331 268 285 276 265 269 262 264 253 248 247 239 241 225 205 205 205 205 205 207 208 209 209 207 205 203 199 196 194 193 191 189 188 188 187 185 183
7 337 323 1 0 330 310 306 282 315 338 331 311 286 272 255 254 243 235 231 219 216 214 213 210 210 211 213 213 211 208 206 202 199 198 197 195 193 192 191 191 189 188
13 350 333 355 336 323 327 333 16 4 337 326 301 269 257 253 247 248 235 231 225 219 217 215 215 215 216 219 218 215 211 209 206 204 202 201 200 197 195 194 194 193 191
27 352 319 10 348 329 345 357 344 325 303 286 290 305 283 257 241 241 242 236 225 220 218 221 211 219 222 222 222 220 216 212 209 208 207 206 205 202 199 197 196 196 195
18 315 349 345 329 343 346 333 339 323 309 294 298 297 286 261 236 223 225 233 237 232 222 215 210 210 217 222 224 224 222 218 214 212 210 208 207 204 201 200 199 198 197
359 336 30 336 355 336 313 328 329 316 312 322 319 313 308 303 345 278 218 223 231 242 253 242 214 216 224 214 220 225 227 225 220 216 213 210 208 205 203 202 201 200 200
333 346 343 347 346 324 340 345 334 334 323 317 305 306 313 334 339 319 328 19 174 205 248 268 242 232 231 228 223 220 224 225 225 222 217 212 209 206 203 204 204 203 202
257 271 315 342 336 319 322 329 17 339 325 317 319 315 295 311 310 316 320 327 291 227 223 239 250 242 238 235 234 232 224 224 226 225 222 216 210 207 205 205 206 207 205
232 216 198 213 310 298 323 345 327 322 315 312 320 323 322 312 267 269 294 308 304 280 248 231 231 237 246 240 233 238 234 229 228 228 225 219 214 210 208 208 209 210 209
257 190 185 136 293 303 334 322 310 301 302 311 312 307 307 306 306 301 300 305 302 293 286 263 234 234 235 238 241 246 242 237 232 229 227 223 217 213 212 212 213 213 212
307 62 49 33 297 302 295 283 285 284 286 289 290 286 296 304 306 303 301 301 301 298 288 272 235 216 227 194 224 247 245 237 233 229 227 225 221 218 215 214 214 214 214
310 349 300 262 262 267 277 288 293 286 282 281 281 282 283 283 286 291 290 297 300 297 286 278 263 214 214 183 197 237 251 238 232 229 226 223 221 218 216 215 214 215 215
296 318 321 295 280 271 266 271 271 278 283 279 278 279 270 279 285 282 283 279 282 290 290 292 292 257 244 204 192 229 254 248 237 230 227 225 220 217 215 213 213 214 214
284 281 276 282 281 276 268 260 264 267 269 266 261 265 272 271 278 285 287 282 272 274 282 290 291 280 270 270 222 236 252 260 244 232 225 225 222 217 215 213 213 213 213
268 272 270 269 271 270 268 261 260 266 267 266 267 267 263 263 266 275 282 283 281 277 277 284 287 292 276 273 262 251 257 250 247 232 224 221 222 219 215 214 215 215 214
261 268 269 270 271 273 270 271 272 274 271 270 268 268 267 266 259 257 263 270 273 273 274 278 280 281 274 264 253 248 257 257 251 233 221 220 220 219 217 216 218 218 216
266 270 271 272 273 274 272 267 264 266 266 268 269 269 268 267 265 261 262 265 273 278 279 279 281 274 270 267 260 253 253 254 253 238 220 221 219 217 218 218 219 219 218
263 265 266 269 272 274 273 268 265 265 264 265 265 266 267 264 261 260 261 256 261 267 274 278 277 274 270 264 258 249 253 243 243 239 224 214 216 217 220 219 221 221 220
265 266 270 272 271 270 268 269 266 270 277 283 279 274 270 267 260 254 260 261 269 272 275 277 276 277 274 274 271 262 262 257 240 224 220 210 205 212 216 222 222 224 222
254 260 268 272 272 274 272 255 259 283 284 280 278 276 276 271 260 245 243 245 247 254 262 268 275 278 286 298 310 309 300 294 277 238 218 228 208 212 209 209 212 218 222
263 262 264 267 269 270 262 245 238 252 265 268 270 272 275 275 282 266 248 243 244 245 243 248 260 267 275 285 306 313 310 305 291 286 261 252 228 220 201 203 199 209 216
257 262 264 267 268 270 263 245 238 244 260 262 261 260 262 265 270 269 271 263 252 248 241 237 240 248 256 264 270 279 285 288 279 262 227 239 226 211 181 188 196 205 212
255 260 264 261 262 264 256 242 232 250 258 261 260 261 259 257 254 247 248 256 260 262 260 251 235 236 239 243 245 261 272 277 279 274 234 221 209 192 183 186 196 211 212
256 263 263 259 261 265 260 240 225 245 258 263 263 260 259 257 255 235 234 246 254 258 266 278 267 253 247 246 237 233 242 253 264 271 242 210 194 173 197 187 180 196 205